Regional Weather Roundup
Issued by NWS Jackson, KY

Home | Current Version | Previous Version | Graphics & Text | Print | Product List | Glossary Off
Versions: 1 2 3 4 5 6 7 8 9 10 11 12 13 14 15 16 17 18 19 20 21 22 23 24 25 26 27 28 29 30 31 32 33 34 35 36 37 38 39 40 41 42 43 44 45 46 47 48 49 50

000
ASUS43 KJKL 050310
RWRJKL

EAST KENTUCKY HOURLY WEATHER ROUNDUP
NATIONAL WEATHER SERVICE JACKSON KY
1100 PM EDT MON MAY 04 2015

NOTE: "FAIR" INDICATES FEW OR NO CLOUDS BELOW 12,000 FEET WITH
NO SIGNIFICANT WEATHER AND/OR OBSTRUCTIONS TO VISIBILITY.

* THESE REPORTS ARE NOT UNDER NWS QUALITY CONTROL AND MAY NOT
  REPORT WEATHER SUCH AS PRECIPITATION AND FOG.

KYZ079-080-083-085-087-088-110-112-115-119-120-050400
...EASTERN KENTUCKY...

CITY           SKY/WX    TMP DP  RH WIND       PRES   REMARKS
JACKSON        CLEAR     71  46  40 CALM      30.25R
LONDON         CLEAR     64  51  62 CALM      30.25R
SOMERSET*      CLEAR     61  52  72 CALM      30.26R
MONTICELLO*    CLEAR     58  54  86 CALM      30.28R
MIDDLESBORO*   CLEAR     59  54  84 CALM      30.28R
HARLAN APT*    CLEAR     61  52  72 CALM      30.29R
HAZARD APT*    CLEAR     64  52  63 CALM      30.26R
BLACK MTN*       N/A     61  46  59 SW5         N/A
PIKEVILLE APT* CLEAR     70  48  46 CALM      30.26R
BIG SANDY*     PTCLDY    69  53  55 CALM      30.24R HAZE
MOREHEAD APT*  LGT RAIN  70  52  52 S3        30.24S
$$

KYZ035-036-041-042-044-050-067-078-099-050400
...CENTRAL KENTUCKY...

CITY           SKY/WX    TMP DP  RH WIND       PRES   REMARKS
MT STERLING*   PTCLDY    64  55  72 SW5       30.24S
FLEMING/MASON* CLEAR     68  55  64 S6        30.22S
DANVILLE*      CLEAR     61  54  77 NW3       30.24S
RICHMOND*      CLEAR     70  50  49 S3        30.23R
LEXINGTON      CLEAR     68  55  63 S6        30.23R
FRANKFORT      PTCLDY    67  55  65 S5        30.20R
$$

KYZ091>093-OHZ055-061-077-WVZ005-015-034-035-042-050400
...SOUTHERN OHIO/WEST VIRGINIA...

CITY           SKY/WX    TMP DP  RH WIND       PRES   REMARKS
COVINGTON        N/A     67  57  70 CALM      30.20R
COLUMBUS       CLOUDY    63  63 100 CALM      30.20R FOG
DAYTON         CLOUDY    67  59  75 E5        30.20R
WILMINGTON     MOCLDY    63  55  75 CALM      30.21R
HUNTINGTON     MOCLDY    68  53  58 CALM      30.21R
CHARLESTON     MOCLDY    66  51  58 CALM      30.22R
PINEVILLE*     CLEAR     58  53  85 MISG      30.32S
BECKLEY        CLEAR     62  45  53 S3        30.30R
BLUEFIELD      CLEAR     67  43  41 SW5       30.33R
$$

VAZ002-007-008-TNZ017-027-036-066-071-050400
...SOUTHWEST VIRGINIA/EAST TENNESSEE...

CITY           SKY/WX    TMP DP  RH WIND       PRES   REMARKS
WISE*          CLEAR     61  41  48 SW3       30.34R
JONESVILLE*    CLEAR     57  54  88 CALM      30.31R
ABINGDON*      CLEAR     61  49  64 CALM      30.31R
BRISTOL        PTCLDY    59  51  75 CALM      30.29R
KNOXVILLE      PTCLDY    68  51  54 CALM      30.26R
OAK RIDGE      CLEAR     64  53  67 CALM      30.28R
CROSSVILLE     CLEAR     62  49  62 CALM      30.30R
NASHVILLE      CLEAR     67  56  67 S3        30.22R
$$

...KEY TO REMARKS...
VSB - VISIBILITY IN MILES
WCI - WIND CHILL INDEX
HX  - HEAT INDEX

$$


USA.gov is the U.S. government's official web portal to all federal, state and local government web resources and services.